Regional Weather Roundup
Issued by NWS

Home | Current Version | Previous Version | Text Only | Print | Product List | Glossary On
Versions: 1 2 3 4 5 6 7 8 9 10 11 12 13 14 15 16 17 18 19 20 21 22 23 24 25 26 27 28 29 30 31 32 33 34 35 36 37 38 39 40 41 42 43 44 45 46 47 48 49 50
000
ASUS43 KBIS 090410
RWRND

NORTH DAKOTA REGIONAL WEATHER ROUNDUP
NATIONAL WEATHER SERVICE BISMARCK ND
1000 PM CST THU DEC 08 2016

NOTE: "FAIR" INDICATES FEW OR NO CLOUDS BELOW 12,000 FEET WITH NO
SIGNIFICANT WEATHER AND/OR OBSTRUCTIONS TO VISIBILITY.


NDZ001>003-009>011-017-090500-
NORTHWEST NORTH DAKOTA

CITY           SKY/WX    TMP DP  RH WIND       PRES   REMARKS
WILLISTON      CLOUDY   -12 -16  82 CALM      30.58S
MINOT          CLOUDY    -6 -11  79 W10       30.56F WCI -24
MINOT AFB      CLEAR     -8 -13  77 NW12      30.56S WCI -27
$$

NDZ018>021-031>035-040>046-090500-
SOUTHWEST NORTH DAKOTA

CITY           SKY/WX    TMP DP  RH WIND       PRES   REMARKS
BISMARCK       CLOUDY    -4  -8  83 SW5       30.60F WCI -15
DICKINSON      CLOUDY   -12 -15  86 W6        30.47S WCI -26
GARRISON         N/A     -9 -14  78 NW10      30.55F WCI -27
HETTINGER ARPT CLOUDY   -17 -22  78 CALM      30.50R
$$

NDZ004>008-012>016-024-026-027-054-090500-
NORTHEAST NORTH DAKOTA

CITY           SKY/WX    TMP DP  RH WIND       PRES   REMARKS
GRAND FORKS    CLOUDY    10   4  76 NW12      30.58S WCI  -5
GRND FRKS AFB  CLOUDY     9   1  72 NW12      30.58S WCI  -6
DEVILS LAKE    FLURRIES  -1  -5  82 W8        30.56S WCI -15
$$

NDZ022-023-025-028>030-036>039-047>053-090500-
SOUTHEAST NORTH DAKOTA

CITY           SKY/WX    TMP DP  RH WIND       PRES   REMARKS
FARGO          CLOUDY     7   0  73 W9        30.59S WCI  -7
JAMESTOWN      CLEAR     -3  -9  75 NW15      30.56S WCI -23
$$





USA.gov is the U.S. government's official web portal to all federal, state and local government web resources and services.